owner,sensor,date,latitude,longitude,vertical_datum,mass_concentration_of_oxygen_in_sea_water,qcFlag 
NERRS,ioos:station:NOAA.NERRS:marcewq:1,2019-11-01T00:15:00Z,28.1323,-97.0344,2.21,8.2,11111222 
NERRS,ioos:station:NOAA.NERRS:marcewq:1,2019-11-01T01:15:00Z,28.1323,-97.0344,2.22,8.3,11111222 
NERRS,ioos:station:NOAA.NERRS:marcewq:1,2019-11-01T02:15:00Z,28.1323,-97.0344,2.24,8.3,11111222 
NERRS,ioos:station:NOAA.NERRS:marcewq:1,2019-11-01T03:15:00Z,28.1323,-97.0344,2.25,8.3,11111222 
NERRS,ioos:station:NOAA.NERRS:marcewq:1,2019-11-01T04:15:00Z,28.1323,-97.0344,2.26,8.2,11111222 
NERRS,ioos:station:NOAA.NERRS:marcewq:1,2019-11-01T05:15:00Z,28.1323,-97.0344,2.27,8.1,11111222 
NERRS,ioos:station:NOAA.NERRS:marcewq:1,2019-11-01T06:15:00Z,28.1323,-97.0344,2.28,8.2,11111222 
NERRS,ioos:station:NOAA.NERRS:marcewq:1,2019-11-01T07:15:00Z,28.1323,-97.0344,2.28,8.2,11111222 
NERRS,ioos:station:NOAA.NERRS:marcewq:1,2019-11-01T08:15:00Z,28.1323,-97.0344,2.3,8.2,11111222 
NERRS,ioos:station:NOAA.NERRS:marcewq:1,2019-11-01T09:15:00Z,28.1323,-97.0344,2.3,8.1,11111222 
NERRS,ioos:station:NOAA.NERRS:marcewq:1,2019-11-01T10:15:00Z,28.1323,-97.0344,2.3,8.1,11111222 
NERRS,ioos:station:NOAA.NERRS:marcewq:1,2019-11-01T11:15:00Z,28.1323,-97.0344,2.3,8.1,11111222 
NERRS,ioos:station:NOAA.NERRS:marcewq:1,2019-11-01T12:15:00Z,28.1323,-97.0344,2.31,8.1,11111222 
NERRS,ioos:station:NOAA.NERRS:marcewq:1,2019-11-01T13:15:00Z,28.1323,-97.0344,2.31,8.0,11111222 
NERRS,ioos:station:NOAA.NERRS:marcewq:1,2019-11-01T14:15:00Z,28.1323,-97.0344,2.31,8.1,11111222 
NERRS,ioos:station:NOAA.NERRS:marcewq:1,2019-11-01T15:15:00Z,28.1323,-97.0344,2.3,8.3,11111222 
NERRS,ioos:station:NOAA.NERRS:marcewq:1,2019-11-01T16:15:00Z,28.1323,-97.0344,2.28,8.4,11111222 
NERRS,ioos:station:NOAA.NERRS:marcewq:1,2019-11-01T17:15:00Z,28.1323,-97.0344,2.27,8.6,11111222 
NERRS,ioos:station:NOAA.NERRS:marcewq:1,2019-11-01T18:15:00Z,28.1323,-97.0344,2.24,9.5,11111222 
NERRS,ioos:station:NOAA.NERRS:marcewq:1,2019-11-01T19:15:00Z,28.1323,-97.0344,2.21,9.5,11111222 
NERRS,ioos:station:NOAA.NERRS:marcewq:1,2019-11-01T20:15:00Z,28.1323,-97.0344,2.19,9.6,11111222 
NERRS,ioos:station:NOAA.NERRS:marcewq:1,2019-11-01T21:15:00Z,28.1323,-97.0344,2.18,9.7,11111222 
NERRS,ioos:station:NOAA.NERRS:marcewq:1,2019-11-01T22:15:00Z,28.1323,-97.0344,2.17,9.5,11111222 
NERRS,ioos:station:NOAA.NERRS:marcewq:1,2019-11-01T23:15:00Z,28.1323,-97.0344,2.17,9.6,11111222 
NERRS,ioos:station:NOAA.NERRS:marcewq:1,2019-11-02T00:15:00Z,28.1323,-97.0344,2.18,9.5,11111222 
NERRS,ioos:station:NOAA.NERRS:marcewq:1,2019-11-02T01:15:00Z,28.1323,-97.0344,2.2,9.6,11111222 
NERRS,ioos:station:NOAA.NERRS:marcewq:1,2019-11-02T02:15:00Z,28.1323,-97.0344,2.22,9.8,11111222 
NERRS,ioos:station:NOAA.NERRS:marcewq:1,2019-11-02T03:15:00Z,28.1323,-97.0344,2.24,9.4,11111222 
NERRS,ioos:station:NOAA.NERRS:marcewq:1,2019-11-02T04:15:00Z,28.1323,-97.0344,2.26,9.5,11111222 
NERRS,ioos:station:NOAA.NERRS:marcewq:1,2019-11-02T05:15:00Z,28.1323,-97.0344,2.31,9.5,11111222 
NERRS,ioos:station:NOAA.NERRS:marcewq:1,2019-11-02T06:15:00Z,28.1323,-97.0344,2.32,9.5,11111222 
NERRS,ioos:station:NOAA.NERRS:marcewq:1,2019-11-02T07:15:00Z,28.1323,-97.0344,2.32,9.4,11111222 
NERRS,ioos:station:NOAA.NERRS:marcewq:1,2019-11-02T08:15:00Z,28.1323,-97.0344,2.35,9.4,11111222 
NERRS,ioos:station:NOAA.NERRS:marcewq:1,2019-11-02T09:15:00Z,28.1323,-97.0344,2.37,9.6,11111222 
NERRS,ioos:station:NOAA.NERRS:marcewq:1,2019-11-02T10:15:00Z,28.1323,-97.0344,2.37,9.4,11111222 
NERRS,ioos:station:NOAA.NERRS:marcewq:1,2019-11-02T11:15:00Z,28.1323,-97.0344,2.39,9.4,11111222 
NERRS,ioos:station:NOAA.NERRS:marcewq:1,2019-11-02T12:15:00Z,28.1323,-97.0344,2.41,9.3,11111222 
NERRS,ioos:station:NOAA.NERRS:marcewq:1,2019-11-02T13:15:00Z,28.1323,-97.0344,2.41,9.3,11111222 
NERRS,ioos:station:NOAA.NERRS:marcewq:1,2019-11-02T14:15:00Z,28.1323,-97.0344,2.42,9.2,11111222 
NERRS,ioos:station:NOAA.NERRS:marcewq:1,2019-11-02T15:15:00Z,28.1323,-97.0344,2.42,9.6,11111222 
NERRS,ioos:station:NOAA.NERRS:marcewq:1,2019-11-02T16:15:00Z,28.1323,-97.0344,2.4,9.4,11111222 
NERRS,ioos:station:NOAA.NERRS:marcewq:1,2019-11-02T17:15:00Z,28.1323,-97.0344,2.39,9.3,11111222 
NERRS,ioos:station:NOAA.NERRS:marcewq:1,2019-11-02T18:15:00Z,28.1323,-97.0344,2.37,9.5,11111222 
NERRS,ioos:station:NOAA.NERRS:marcewq:1,2019-11-02T19:15:00Z,28.1323,-97.0344,2.35,9.7,11111222 
NERRS,ioos:station:NOAA.NERRS:marcewq:1,2019-11-02T20:15:00Z,28.1323,-97.0344,2.34,9.8,11111222 
NERRS,ioos:station:NOAA.NERRS:marcewq:1,2019-11-02T21:15:00Z,28.1323,-97.0344,2.32,10.1,11133222 
NERRS,ioos:station:NOAA.NERRS:marcewq:1,2019-11-02T22:15:00Z,28.1323,-97.0344,2.31,9.8,11111222 
NERRS,ioos:station:NOAA.NERRS:marcewq:1,2019-11-02T23:15:00Z,28.1323,-97.0344,2.3,10.0,11111222 
NERRS,ioos:station:NOAA.NERRS:marcewq:1,2019-11-03T00:15:00Z,28.1323,-97.0344,2.3,9.5,11111222 
NERRS,ioos:station:NOAA.NERRS:marcewq:1,2019-11-03T01:15:00Z,28.1323,-97.0344,2.29,9.7,11111222 
NERRS,ioos:station:NOAA.NERRS:marcewq:1,2019-11-03T02:15:00Z,28.1323,-97.0344,2.29,9.6,11111222 
NERRS,ioos:station:NOAA.NERRS:marcewq:1,2019-11-03T03:15:00Z,28.1323,-97.0344,2.3,8.9,11111222 
NERRS,ioos:station:NOAA.NERRS:marcewq:1,2019-11-03T04:15:00Z,28.1323,-97.0344,2.33,8.9,11111222 
NERRS,ioos:station:NOAA.NERRS:marcewq:1,2019-11-03T05:15:00Z,28.1323,-97.0344,2.34,9.1,11111222 
NERRS,ioos:station:NOAA.NERRS:marcewq:1,2019-11-03T06:15:00Z,28.1323,-97.0344,2.36,8.8,11111222 
NERRS,ioos:station:NOAA.NERRS:marcewq:1,2019-11-03T07:15:00Z,28.1323,-97.0344,2.37,8.8,11111222 
NERRS,ioos:station:NOAA.NERRS:marcewq:1,2019-11-03T08:15:00Z,28.1323,-97.0344,2.37,8.8,11111222 
NERRS,ioos:station:NOAA.NERRS:marcewq:1,2019-11-03T09:15:00Z,28.1323,-97.0344,2.37,8.8,11111222 
NERRS,ioos:station:NOAA.NERRS:marcewq:1,2019-11-03T10:15:00Z,28.1323,-97.0344,2.37,8.8,11111222 
NERRS,ioos:station:NOAA.NERRS:marcewq:1,2019-11-03T11:15:00Z,28.1323,-97.0344,2.38,8.7,11111222 
NERRS,ioos:station:NOAA.NERRS:marcewq:1,2019-11-03T12:15:00Z,28.1323,-97.0344,2.38,8.6,11111222 
NERRS,ioos:station:NOAA.NERRS:marcewq:1,2019-11-03T13:15:00Z,28.1323,-97.0344,2.39,8.5,11111222 
NERRS,ioos:station:NOAA.NERRS:marcewq:1,2019-11-03T14:15:00Z,28.1323,-97.0344,2.38,8.4,11111222 
NERRS,ioos:station:NOAA.NERRS:marcewq:1,2019-11-03T15:15:00Z,28.1323,-97.0344,2.36,8.6,11111222 
NERRS,ioos:station:NOAA.NERRS:marcewq:1,2019-11-03T16:15:00Z,28.1323,-97.0344,2.35,8.7,11111222 
NERRS,ioos:station:NOAA.NERRS:marcewq:1,2019-11-03T17:15:00Z,28.1323,-97.0344,2.34,8.8,11111222 
NERRS,ioos:station:NOAA.NERRS:marcewq:1,2019-11-03T18:15:00Z,28.1323,-97.0344,2.32,9.0,11111222 
NERRS,ioos:station:NOAA.NERRS:marcewq:1,2019-11-03T19:15:00Z,28.1323,-97.0344,2.29,9.2,11111222 
NERRS,ioos:station:NOAA.NERRS:marcewq:1,2019-11-03T20:15:00Z,28.1323,-97.0344,2.29,9.4,11111222 
NERRS,ioos:station:NOAA.NERRS:marcewq:1,2019-11-03T21:15:00Z,28.1323,-97.0344,2.26,9.5,11111222 
NERRS,ioos:station:NOAA.NERRS:marcewq:1,2019-11-03T22:15:00Z,28.1323,-97.0344,2.24,9.4,11111222 
NERRS,ioos:station:NOAA.NERRS:marcewq:1,2019-11-03T23:15:00Z,28.1323,-97.0344,2.24,9.3,11111222 
NERRS,ioos:station:NOAA.NERRS:marcewq:1,2019-11-04T00:15:00Z,28.1323,-97.0344,2.23,9.1,11111222 
NERRS,ioos:station:NOAA.NERRS:marcewq:1,2019-11-04T01:15:00Z,28.1323,-97.0344,2.23,9.1,11111222 
NERRS,ioos:station:NOAA.NERRS:marcewq:1,2019-11-04T02:15:00Z,28.1323,-97.0344,2.23,9.1,11111222 
NERRS,ioos:station:NOAA.NERRS:marcewq:1,2019-11-04T03:15:00Z,28.1323,-97.0344,2.24,9.1,11111222 
NERRS,ioos:station:NOAA.NERRS:marcewq:1,2019-11-04T04:15:00Z,28.1323,-97.0344,2.25,8.9,11111222 
NERRS,ioos:station:NOAA.NERRS:marcewq:1,2019-11-04T05:15:00Z,28.1323,-97.0344,2.27,8.9,11111222 
NERRS,ioos:station:NOAA.NERRS:marcewq:1,2019-11-04T15:15:00Z,28.1323,-97.0344,2.35,8.7,11111222 
NERRS,ioos:station:NOAA.NERRS:marcewq:1,2019-11-04T16:15:00Z,28.1323,-97.0344,2.35,8.8,11111222 
NERRS,ioos:station:NOAA.NERRS:marcewq:1,2019-11-04T17:15:00Z,28.1323,-97.0344,2.33,8.9,11111222 
NERRS,ioos:station:NOAA.NERRS:marcewq:1,2019-11-04T18:15:00Z,28.1323,-97.0344,2.32,9.1,11111222 
NERRS,ioos:station:NOAA.NERRS:marcewq:1,2019-11-04T19:15:00Z,28.1323,-97.0344,2.29,9.1,11111222 
NERRS,ioos:station:NOAA.NERRS:marcewq:1,2019-11-04T20:15:00Z,28.1323,-97.0344,2.27,9.3,11111222 
NERRS,ioos:station:NOAA.NERRS:marcewq:1,2019-11-04T21:15:00Z,28.1323,-97.0344,2.26,9.4,11111222 
NERRS,ioos:station:NOAA.NERRS:marcewq:1,2019-11-04T22:15:00Z,28.1323,-97.0344,2.25,9.3,11111222 
NERRS,ioos:station:NOAA.NERRS:marcewq:1,2019-11-04T23:15:00Z,28.1323,-97.0344,2.24,9.3,11111222 
NERRS,ioos:station:NOAA.NERRS:marcewq:1,2019-11-05T00:15:00Z,28.1323,-97.0344,2.23,9.4,11111222 
NERRS,ioos:station:NOAA.NERRS:marcewq:1,2019-11-05T01:15:00Z,28.1323,-97.0344,2.23,9.2,11111222 
NERRS,ioos:station:NOAA.NERRS:marcewq:1,2019-11-05T02:15:00Z,28.1323,-97.0344,2.23,9.1,11111222 
NERRS,ioos:station:NOAA.NERRS:marcewq:1,2019-11-05T03:15:00Z,28.1323,-97.0344,2.24,8.6,11111222 
NERRS,ioos:station:NOAA.NERRS:marcewq:1,2019-11-05T04:15:00Z,28.1323,-97.0344,2.25,8.6,11111222 
NERRS,ioos:station:NOAA.NERRS:marcewq:1,2019-11-05T05:15:00Z,28.1323,-97.0344,2.26,8.7,11111222 
NERRS,ioos:station:NOAA.NERRS:marcewq:1,2019-11-05T06:15:00Z,28.1323,-97.0344,2.28,8.9,11111222 
NERRS,ioos:station:NOAA.NERRS:marcewq:1,2019-11-05T07:15:00Z,28.1323,-97.0344,2.3,8.8,11111222 
NERRS,ioos:station:NOAA.NERRS:marcewq:1,2019-11-05T08:15:00Z,28.1323,-97.0344,2.3,8.9,11111222 
NERRS,ioos:station:NOAA.NERRS:marcewq:1,2019-11-05T09:15:00Z,28.1323,-97.0344,2.32,8.8,11111222 
NERRS,ioos:station:NOAA.NERRS:marcewq:1,2019-11-05T10:15:00Z,28.1323,-97.0344,2.33,8.8,11111222 
NERRS,ioos:station:NOAA.NERRS:marcewq:1,2019-11-05T11:15:00Z,28.1323,-97.0344,2.34,8.8,11111222 
NERRS,ioos:station:NOAA.NERRS:marcewq:1,2019-11-05T12:15:00Z,28.1323,-97.0344,2.35,8.7,11111222 
NERRS,ioos:station:NOAA.NERRS:marcewq:1,2019-11-05T13:15:00Z,28.1323,-97.0344,2.36,8.7,11111222 
NERRS,ioos:station:NOAA.NERRS:marcewq:1,2019-11-05T14:15:00Z,28.1323,-97.0344,2.38,8.6,11111222 
NERRS,ioos:station:NOAA.NERRS:marcewq:1,2019-11-05T15:15:00Z,28.1323,-97.0344,2.39,8.7,11111222 
NERRS,ioos:station:NOAA.NERRS:marcewq:1,2019-11-05T16:15:00Z,28.1323,-97.0344,2.39,8.7,11111222 
NERRS,ioos:station:NOAA.NERRS:marcewq:1,2019-11-05T17:15:00Z,28.1323,-97.0344,2.38,8.8,11111222 
NERRS,ioos:station:NOAA.NERRS:marcewq:1,2019-11-05T18:15:00Z,28.1323,-97.0344,2.38,8.9,11111222 
NERRS,ioos:station:NOAA.NERRS:marcewq:1,2019-11-05T19:15:00Z,28.1323,-97.0344,2.36,9.1,11111222 
NERRS,ioos:station:NOAA.NERRS:marcewq:1,2019-11-05T20:15:00Z,28.1323,-97.0344,2.35,9.1,11111222 
NERRS,ioos:station:NOAA.NERRS:marcewq:1,2019-11-05T21:15:00Z,28.1323,-97.0344,2.34,9.2,11111222 
NERRS,ioos:station:NOAA.NERRS:marcewq:1,2019-11-05T22:15:00Z,28.1323,-97.0344,2.33,9.1,11111222 
NERRS,ioos:station:NOAA.NERRS:marcewq:1,2019-11-05T23:15:00Z,28.1323,-97.0344,2.33,9.0,11111222 
NERRS,ioos:station:NOAA.NERRS:marcewq:1,2019-11-06T00:15:00Z,28.1323,-97.0344,2.32,9.0,11111222 
NERRS,ioos:station:NOAA.NERRS:marcewq:1,2019-11-06T01:15:00Z,28.1323,-97.0344,2.31,9.0,11111222 
NERRS,ioos:station:NOAA.NERRS:marcewq:1,2019-11-06T02:15:00Z,28.1323,-97.0344,2.31,8.8,11111222 
NERRS,ioos:station:NOAA.NERRS:marcewq:1,2019-11-06T03:15:00Z,28.1323,-97.0344,2.3,8.7,11111222 
NERRS,ioos:station:NOAA.NERRS:marcewq:1,2019-11-06T04:15:00Z,28.1323,-97.0344,2.31,8.7,11111222 
NERRS,ioos:station:NOAA.NERRS:marcewq:1,2019-11-06T05:15:00Z,28.1323,-97.0344,2.3,8.5,11111222 
NERRS,ioos:station:NOAA.NERRS:marcewq:1,2019-11-06T06:15:00Z,28.1323,-97.0344,2.31,8.4,11111222 
NERRS,ioos:station:NOAA.NERRS:marcewq:1,2019-11-06T07:15:00Z,28.1323,-97.0344,2.32,8.4,11111222 
NERRS,ioos:station:NOAA.NERRS:marcewq:1,2019-11-06T08:15:00Z,28.1323,-97.0344,2.32,8.4,11111222 
NERRS,ioos:station:NOAA.NERRS:marcewq:1,2019-11-06T09:15:00Z,28.1323,-97.0344,2.33,8.3,11111222 
NERRS,ioos:station:NOAA.NERRS:marcewq:1,2019-11-06T10:15:00Z,28.1323,-97.0344,2.34,8.3,11111222 
NERRS,ioos:station:NOAA.NERRS:marcewq:1,2019-11-06T11:15:00Z,28.1323,-97.0344,2.34,8.3,11111222 
NERRS,ioos:station:NOAA.NERRS:marcewq:1,2019-11-06T12:15:00Z,28.1323,-97.0344,2.34,8.3,11111222 
NERRS,ioos:station:NOAA.NERRS:marcewq:1,2019-11-06T13:15:00Z,28.1323,-97.0344,2.35,8.2,11111222 
NERRS,ioos:station:NOAA.NERRS:marcewq:1,2019-11-06T14:15:00Z,28.1323,-97.0344,2.35,8.1,11111222 
NERRS,ioos:station:NOAA.NERRS:marcewq:1,2019-11-06T15:15:00Z,28.1323,-97.0344,2.35,8.0,11111222 
NERRS,ioos:station:NOAA.NERRS:marcewq:1,2019-11-06T16:15:00Z,28.1323,-97.0344,2.35,8.3,11111222 
NERRS,ioos:station:NOAA.NERRS:marcewq:1,2019-11-06T17:15:00Z,28.1323,-97.0344,2.33,8.3,11111222 
NERRS,ioos:station:NOAA.NERRS:marcewq:1,2019-11-06T18:15:00Z,28.1323,-97.0344,2.32,8.4,11111222 
NERRS,ioos:station:NOAA.NERRS:marcewq:1,2019-11-06T19:15:00Z,28.1323,-97.0344,2.31,8.4,11111222 
NERRS,ioos:station:NOAA.NERRS:marcewq:1,2019-11-06T20:15:00Z,28.1323,-97.0344,2.3,8.5,11111222 
NERRS,ioos:station:NOAA.NERRS:marcewq:1,2019-11-06T21:15:00Z,28.1323,-97.0344,2.29,8.8,11111222 
NERRS,ioos:station:NOAA.NERRS:marcewq:1,2019-11-06T22:15:00Z,28.1323,-97.0344,2.29,8.8,11111222 
NERRS,ioos:station:NOAA.NERRS:marcewq:1,2019-11-06T23:15:00Z,28.1323,-97.0344,2.28,9.0,11111222 
NERRS,ioos:station:NOAA.NERRS:marcewq:1,2019-11-07T00:15:00Z,28.1323,-97.0344,2.28,9.3,11111222 
NERRS,ioos:station:NOAA.NERRS:marcewq:1,2019-11-07T01:15:00Z,28.1323,-97.0344,2.27,9.4,11111222 
NERRS,ioos:station:NOAA.NERRS:marcewq:1,2019-11-07T02:15:00Z,28.1323,-97.0344,2.27,8.9,11111222 
NERRS,ioos:station:NOAA.NERRS:marcewq:1,2019-11-07T03:15:00Z,28.1323,-97.0344,2.26,8.7,11111222 
NERRS,ioos:station:NOAA.NERRS:marcewq:1,2019-11-07T04:15:00Z,28.1323,-97.0344,2.27,8.7,11111222 
NERRS,ioos:station:NOAA.NERRS:marcewq:1,2019-11-07T05:15:00Z,28.1323,-97.0344,2.27,8.5,11111222 
NERRS,ioos:station:NOAA.NERRS:marcewq:1,2019-11-07T06:15:00Z,28.1323,-97.0344,2.28,8.5,11111222 
NERRS,ioos:station:NOAA.NERRS:marcewq:1,2019-11-07T07:15:00Z,28.1323,-97.0344,2.29,8.4,11111222 
NERRS,ioos:station:NOAA.NERRS:marcewq:1,2019-11-07T08:15:00Z,28.1323,-97.0344,2.3,8.4,11111222 
NERRS,ioos:station:NOAA.NERRS:marcewq:1,2019-11-07T09:15:00Z,28.1323,-97.0344,2.31,8.4,11111222 
NERRS,ioos:station:NOAA.NERRS:marcewq:1,2019-11-07T10:15:00Z,28.1323,-97.0344,2.32,8.3,11111222 
NERRS,ioos:station:NOAA.NERRS:marcewq:1,2019-11-07T11:15:00Z,28.1323,-97.0344,2.33,8.2,11111222 
NERRS,ioos:station:NOAA.NERRS:marcewq:1,2019-11-07T12:15:00Z,28.1323,-97.0344,2.34,8.2,11111222 
NERRS,ioos:station:NOAA.NERRS:marcewq:1,2019-11-07T13:15:00Z,28.1323,-97.0344,2.35,8.2,11111222 
NERRS,ioos:station:NOAA.NERRS:marcewq:1,2019-11-07T14:15:00Z,28.1323,-97.0344,2.36,8.2,11111222 
NERRS,ioos:station:NOAA.NERRS:marcewq:1,2019-11-07T15:15:00Z,28.1323,-97.0344,2.36,8.1,11111222 
NERRS,ioos:station:NOAA.NERRS:marcewq:1,2019-11-07T16:15:00Z,28.1323,-97.0344,2.36,8.2,11111222 
NERRS,ioos:station:NOAA.NERRS:marcewq:1,2019-11-07T17:15:00Z,28.1323,-97.0344,2.36,8.3,11111222 
NERRS,ioos:station:NOAA.NERRS:marcewq:1,2019-11-07T18:15:00Z,28.1323,-97.0344,2.34,8.3,11111222 
NERRS,ioos:station:NOAA.NERRS:marcewq:1,2019-11-07T19:15:00Z,28.1323,-97.0344,2.34,8.5,11111222 
NERRS,ioos:station:NOAA.NERRS:marcewq:1,2019-11-07T20:15:00Z,28.1323,-97.0344,2.32,9.0,11111222 
NERRS,ioos:station:NOAA.NERRS:marcewq:1,2019-11-07T21:15:00Z,28.1323,-97.0344,2.32,9.2,11111222 
NERRS,ioos:station:NOAA.NERRS:marcewq:1,2019-11-07T22:15:00Z,28.1323,-97.0344,2.3,9.0,11111222 
NERRS,ioos:station:NOAA.NERRS:marcewq:1,2019-11-07T23:15:00Z,28.1323,-97.0344,2.25,8.4,11111222 
NERRS,ioos:station:NOAA.NERRS:marcewq:1,2019-11-08T00:15:00Z,28.1323,-97.0344,2.31,8.6,11111222 
NERRS,ioos:station:NOAA.NERRS:marcewq:1,2019-11-08T01:15:00Z,28.1323,-97.0344,2.29,8.6,11111222 
NERRS,ioos:station:NOAA.NERRS:marcewq:1,2019-11-08T02:15:00Z,28.1323,-97.0344,2.28,8.4,11111222 
NERRS,ioos:station:NOAA.NERRS:marcewq:1,2019-11-08T03:15:00Z,28.1323,-97.0344,2.28,8.5,11111222 
NERRS,ioos:station:NOAA.NERRS:marcewq:1,2019-11-08T04:15:00Z,28.1323,-97.0344,2.25,7.9,11111222 
NERRS,ioos:station:NOAA.NERRS:marcewq:1,2019-11-08T05:15:00Z,28.1323,-97.0344,2.24,7.8,11111222 
NERRS,ioos:station:NOAA.NERRS:marcewq:1,2019-11-08T06:15:00Z,28.1323,-97.0344,2.24,8.5,11111222 
NERRS,ioos:station:NOAA.NERRS:marcewq:1,2019-11-08T07:15:00Z,28.1323,-97.0344,2.24,8.4,11111222 
NERRS,ioos:station:NOAA.NERRS:marcewq:1,2019-11-08T08:15:00Z,28.1323,-97.0344,2.23,8.4,11111222 
NERRS,ioos:station:NOAA.NERRS:marcewq:1,2019-11-08T09:15:00Z,28.1323,-97.0344,2.22,7.8,11111222 
NERRS,ioos:station:NOAA.NERRS:marcewq:1,2019-11-08T10:15:00Z,28.1323,-97.0344,2.22,8.2,11111222 
NERRS,ioos:station:NOAA.NERRS:marcewq:1,2019-11-08T11:15:00Z,28.1323,-97.0344,2.22,8.2,11111222 
NERRS,ioos:station:NOAA.NERRS:marcewq:1,2019-11-08T12:15:00Z,28.1323,-97.0344,2.22,8.2,11111222 
NERRS,ioos:station:NOAA.NERRS:marcewq:1,2019-11-08T13:15:00Z,28.1323,-97.0344,2.27,8.4,11111222 
NERRS,ioos:station:NOAA.NERRS:marcewq:1,2019-11-08T14:15:00Z,28.1323,-97.0344,2.26,8.2,11111222 
NERRS,ioos:station:NOAA.NERRS:marcewq:1,2019-11-08T15:15:00Z,28.1323,-97.0344,2.26,8.4,11111222 
NERRS,ioos:station:NOAA.NERRS:marcewq:1,2019-11-08T16:15:00Z,28.1323,-97.0344,2.26,8.3,11111222 
NERRS,ioos:station:NOAA.NERRS:marcewq:1,2019-11-08T17:15:00Z,28.1323,-97.0344,2.28,8.4,11111222 
NERRS,ioos:station:NOAA.NERRS:marcewq:1,2019-11-08T18:15:00Z,28.1323,-97.0344,2.26,8.4,11111222 
NERRS,ioos:station:NOAA.NERRS:marcewq:1,2019-11-08T19:15:00Z,28.1323,-97.0344,2.24,8.5,11111222 
NERRS,ioos:station:NOAA.NERRS:marcewq:1,2019-11-08T20:15:00Z,28.1323,-97.0344,2.27,8.5,11111222 
NERRS,ioos:station:NOAA.NERRS:marcewq:1,2019-11-08T21:15:00Z,28.1323,-97.0344,2.29,8.7,11111222 
NERRS,ioos:station:NOAA.NERRS:marcewq:1,2019-11-08T22:15:00Z,28.1323,-97.0344,2.31,8.7,11111222 
NERRS,ioos:station:NOAA.NERRS:marcewq:1,2019-11-08T23:15:00Z,28.1323,-97.0344,2.31,8.6,11111222 
NERRS,ioos:station:NOAA.NERRS:marcewq:1,2019-11-09T00:15:00Z,28.1323,-97.0344,2.32,8.5,11111222 
NERRS,ioos:station:NOAA.NERRS:marcewq:1,2019-11-09T01:15:00Z,28.1323,-97.0344,2.33,8.4,11111222 
NERRS,ioos:station:NOAA.NERRS:marcewq:1,2019-11-09T02:15:00Z,28.1323,-97.0344,2.31,8.4,11111222 
NERRS,ioos:station:NOAA.NERRS:marcewq:1,2019-11-09T03:15:00Z,28.1323,-97.0344,2.32,8.8,11111222 
NERRS,ioos:station:NOAA.NERRS:marcewq:1,2019-11-09T04:15:00Z,28.1323,-97.0344,2.33,8.8,11111222 
NERRS,ioos:station:NOAA.NERRS:marcewq:1,2019-11-09T05:15:00Z,28.1323,-97.0344,2.32,8.5,11111222 
NERRS,ioos:station:NOAA.NERRS:marcewq:1,2019-11-09T06:15:00Z,28.1323,-97.0344,2.3,8.6,11111222 
NERRS,ioos:station:NOAA.NERRS:marcewq:1,2019-11-09T07:15:00Z,28.1323,-97.0344,2.31,8.5,11111222 
NERRS,ioos:station:NOAA.NERRS:marcewq:1,2019-11-09T08:15:00Z,28.1323,-97.0344,2.32,8.7,11111222 
NERRS,ioos:station:NOAA.NERRS:marcewq:1,2019-11-09T09:15:00Z,28.1323,-97.0344,2.31,8.6,11111222 
NERRS,ioos:station:NOAA.NERRS:marcewq:1,2019-11-09T10:15:00Z,28.1323,-97.0344,2.33,8.8,11111222 
NERRS,ioos:station:NOAA.NERRS:marcewq:1,2019-11-09T11:15:00Z,28.1323,-97.0344,2.31,8.5,11111222 
NERRS,ioos:station:NOAA.NERRS:marcewq:1,2019-11-09T12:15:00Z,28.1323,-97.0344,2.31,8.0,11111222 
NERRS,ioos:station:NOAA.NERRS:marcewq:1,2019-11-09T13:15:00Z,28.1323,-97.0344,2.3,8.1,11111222 
NERRS,ioos:station:NOAA.NERRS:marcewq:1,2019-11-09T14:15:00Z,28.1323,-97.0344,2.29,8.0,11111222 
NERRS,ioos:station:NOAA.NERRS:marcewq:1,2019-11-09T15:15:00Z,28.1323,-97.0344,2.31,8.1,11111222 
NERRS,ioos:station:NOAA.NERRS:marcewq:1,2019-11-09T16:15:00Z,28.1323,-97.0344,2.3,8.2,11111222 
NERRS,ioos:station:NOAA.NERRS:marcewq:1,2019-11-09T17:15:00Z,28.1323,-97.0344,2.29,8.2,11111222 
NERRS,ioos:station:NOAA.NERRS:marcewq:1,2019-11-09T18:15:00Z,28.1323,-97.0344,2.29,8.3,11111222 
NERRS,ioos:station:NOAA.NERRS:marcewq:1,2019-11-09T19:15:00Z,28.1323,-97.0344,2.29,8.4,11111222 
NERRS,ioos:station:NOAA.NERRS:marcewq:1,2019-11-09T20:15:00Z,28.1323,-97.0344,2.29,8.9,11111222 
NERRS,ioos:station:NOAA.NERRS:marcewq:1,2019-11-09T21:15:00Z,28.1323,-97.0344,2.3,9.1,11111222 
NERRS,ioos:station:NOAA.NERRS:marcewq:1,2019-11-09T22:15:00Z,28.1323,-97.0344,2.31,8.8,11111222 
NERRS,ioos:station:NOAA.NERRS:marcewq:1,2019-11-09T23:15:00Z,28.1323,-97.0344,2.33,8.8,11111222 
NERRS,ioos:station:NOAA.NERRS:marcewq:1,2019-11-10T00:15:00Z,28.1323,-97.0344,2.34,8.8,11111222 
NERRS,ioos:station:NOAA.NERRS:marcewq:1,2019-11-10T01:15:00Z,28.1323,-97.0344,2.36,8.7,11111222 
NERRS,ioos:station:NOAA.NERRS:marcewq:1,2019-11-10T02:15:00Z,28.1323,-97.0344,2.36,8.5,11111222 
NERRS,ioos:station:NOAA.NERRS:marcewq:1,2019-11-10T03:15:00Z,28.1323,-97.0344,2.36,8.3,11111222 
NERRS,ioos:station:NOAA.NERRS:marcewq:1,2019-11-10T04:15:00Z,28.1323,-97.0344,2.37,8.6,11111222 
NERRS,ioos:station:NOAA.NERRS:marcewq:1,2019-11-10T05:15:00Z,28.1323,-97.0344,2.37,8.6,11111222 
NERRS,ioos:station:NOAA.NERRS:marcewq:1,2019-11-10T06:15:00Z,28.1323,-97.0344,2.37,8.6,11111222 
NERRS,ioos:station:NOAA.NERRS:marcewq:1,2019-11-10T07:15:00Z,28.1323,-97.0344,2.37,8.2,11111222 
NERRS,ioos:station:NOAA.NERRS:marcewq:1,2019-11-10T08:15:00Z,28.1323,-97.0344,2.37,8.2,11111222 
NERRS,ioos:station:NOAA.NERRS:marcewq:1,2019-11-10T09:15:00Z,28.1323,-97.0344,2.37,8.4,11111222 
NERRS,ioos:station:NOAA.NERRS:marcewq:1,2019-11-10T10:15:00Z,28.1323,-97.0344,2.37,7.9,11111222 
NERRS,ioos:station:NOAA.NERRS:marcewq:1,2019-11-10T11:15:00Z,28.1323,-97.0344,2.37,8.2,11111222 
NERRS,ioos:station:NOAA.NERRS:marcewq:1,2019-11-10T12:15:00Z,28.1323,-97.0344,2.36,8.2,11111222 
NERRS,ioos:station:NOAA.NERRS:marcewq:1,2019-11-10T13:15:00Z,28.1323,-97.0344,2.35,8.2,11111222 
NERRS,ioos:station:NOAA.NERRS:marcewq:1,2019-11-10T14:15:00Z,28.1323,-97.0344,2.34,8.4,11111222 
NERRS,ioos:station:NOAA.NERRS:marcewq:1,2019-11-10T15:15:00Z,28.1323,-97.0344,2.33,8.6,11111222 
NERRS,ioos:station:NOAA.NERRS:marcewq:1,2019-11-10T16:15:00Z,28.1323,-97.0344,2.32,8.5,11111222 
NERRS,ioos:station:NOAA.NERRS:marcewq:1,2019-11-10T17:15:00Z,28.1323,-97.0344,2.31,8.6,11111222 
NERRS,ioos:station:NOAA.NERRS:marcewq:1,2019-11-10T18:15:00Z,28.1323,-97.0344,2.29,8.6,11111222 
NERRS,ioos:station:NOAA.NERRS:marcewq:1,2019-11-10T19:15:00Z,28.1323,-97.0344,2.28,8.6,11111222 
NERRS,ioos:station:NOAA.NERRS:marcewq:1,2019-11-10T20:15:00Z,28.1323,-97.0344,2.27,9.1,11111222 
NERRS,ioos:station:NOAA.NERRS:marcewq:1,2019-11-10T21:15:00Z,28.1323,-97.0344,2.28,9.0,11111222 
NERRS,ioos:station:NOAA.NERRS:marcewq:1,2019-11-10T22:15:00Z,28.1323,-97.0344,2.29,9.1,11111222 
NERRS,ioos:station:NOAA.NERRS:marcewq:1,2019-11-10T23:15:00Z,28.1323,-97.0344,2.3,9.2,11111222 
NERRS,ioos:station:NOAA.NERRS:marcewq:1,2019-11-11T00:15:00Z,28.1323,-97.0344,2.31,9.2,11111222 
NERRS,ioos:station:NOAA.NERRS:marcewq:1,2019-11-11T01:15:00Z,28.1323,-97.0344,2.32,9.1,11111222 
NERRS,ioos:station:NOAA.NERRS:marcewq:1,2019-11-11T02:15:00Z,28.1323,-97.0344,2.33,9.2,11111222 
NERRS,ioos:station:NOAA.NERRS:marcewq:1,2019-11-11T03:15:00Z,28.1323,-97.0344,2.33,9.4,11111222 
NERRS,ioos:station:NOAA.NERRS:marcewq:1,2019-11-11T04:15:00Z,28.1323,-97.0344,2.34,9.8,11111222 
NERRS,ioos:station:NOAA.NERRS:marcewq:1,2019-11-11T05:15:00Z,28.1323,-97.0344,2.35,9.9,11111222 
NERRS,ioos:station:NOAA.NERRS:marcewq:1,2019-11-11T06:15:00Z,28.1323,-97.0344,2.35,9.5,11111222 
NERRS,ioos:station:NOAA.NERRS:marcewq:1,2019-11-11T07:15:00Z,28.1323,-97.0344,2.34,9.1,11111222 
NERRS,ioos:station:NOAA.NERRS:marcewq:1,2019-11-11T08:15:00Z,28.1323,-97.0344,2.34,8.9,11111222 
NERRS,ioos:station:NOAA.NERRS:marcewq:1,2019-11-11T09:15:00Z,28.1323,-97.0344,2.34,9.0,11111222 
NERRS,ioos:station:NOAA.NERRS:marcewq:1,2019-11-11T10:15:00Z,28.1323,-97.0344,2.35,9.4,11111222 
NERRS,ioos:station:NOAA.NERRS:marcewq:1,2019-11-11T11:15:00Z,28.1323,-97.0344,2.33,9.0,11111222 
NERRS,ioos:station:NOAA.NERRS:marcewq:1,2019-11-11T12:15:00Z,28.1323,-97.0344,2.32,8.8,11111222 
NERRS,ioos:station:NOAA.NERRS:marcewq:1,2019-11-11T13:15:00Z,28.1323,-97.0344,2.31,8.8,11111222 
NERRS,ioos:station:NOAA.NERRS:marcewq:1,2019-11-11T14:15:00Z,28.1323,-97.0344,2.31,8.7,11111222 